Time,TemperatureF,DewpointF,PressureIn,WindDirection,WindDirectionDegrees,WindSpeedMPH,WindSpeedGustMPH,Humidity,HourlyPrecipIn,Conditions,Clouds,dailyrainin,SoftwareType,DateUTC
2013-02-15 00:00:00,34.9,33.3,29.89,WNW,283,6.0,13.0,94,0.04,,---,0.27,VWS V13.01,2013-02-15 05:00:00,
2013-02-15 00:02:00,34.9,33.3,29.89,WNW,300,9.0,14.0,94,0.02,,---,0.00,VWS V13.01,2013-02-15 05:02:00,
2013-02-15 00:07:00,35.0,33.2,29.89,WNW,288,7.0,14.0,93,0.02,,---,0.00,VWS V13.01,2013-02-15 05:07:00,
2013-02-15 00:12:00,35.0,33.2,29.89,West,268,10.0,14.0,93,0.02,,---,0.00,VWS V13.01,2013-02-15 05:12:00,
2013-02-15 00:17:00,35.0,32.9,29.89,WNW,282,5.0,14.0,92,0.02,,---,0.00,VWS V13.01,2013-02-15 05:17:00,
2013-02-15 00:22:00,35.0,32.9,29.89,WNW,283,7.0,14.0,92,0.02,,---,0.00,VWS V13.01,2013-02-15 05:22:00,
2013-02-15 00:27:00,35.1,32.7,29.89,West,279,10.0,15.0,91,0.02,,---,0.00,VWS V13.01,2013-02-15 05:27:00,
2013-02-15 00:32:00,35.1,32.5,29.89,West,279,12.0,14.0,90,0.01,,---,0.01,VWS V13.01,2013-02-15 05:32:00,
2013-02-15 00:37:00,35.2,32.3,29.89,WNW,284,13.0,18.0,89,0.02,,---,0.01,VWS V13.01,2013-02-15 05:37:00,
2013-02-15 00:43:00,35.2,32.3,29.90,West,280,9.0,18.0,89,0.02,,---,0.01,VWS V13.01,2013-02-15 05:43:00,
2013-02-15 00:48:00,35.1,32.2,29.90,WNW,294,11.0,18.0,89,0.02,,---,0.01,VWS V13.01,2013-02-15 05:48:00,
2013-02-15 00:53:00,34.9,31.7,29.91,WNW,297,10.0,18.0,88,0.02,,---,0.01,VWS V13.01,2013-02-15 05:53:00,
2013-02-15 00:58:00,34.7,31.5,29.91,West,280,7.0,18.0,88,0.02,,---,0.01,VWS V13.01,2013-02-15 05:58:00,
2013-02-15 01:03:00,34.5,31.3,29.91,WNW,299,8.0,11.0,88,0.01,,---,0.01,VWS V13.01,2013-02-15 06:03:00,
2013-02-15 01:08:00,34.4,30.9,29.91,West,277,7.0,12.0,87,0.01,,---,0.01,VWS V13.01,2013-02-15 06:08:00,
2013-02-15 01:13:00,34.4,30.6,29.91,West,268,12.0,19.0,86,0.01,,---,0.01,VWS V13.01,2013-02-15 06:13:00,
2013-02-15 01:18:00,34.3,30.3,29.91,West,278,8.0,19.0,85,0.01,,---,0.01,VWS V13.01,2013-02-15 06:18:00,
2013-02-15 01:23:00,34.1,29.8,29.91,West,262,12.0,19.0,84,0.01,,---,0.01,VWS V13.01,2013-02-15 06:23:00,
2013-02-15 01:28:00,34.2,29.6,29.91,West,269,8.0,19.0,83,0.01,,---,0.01,VWS V13.01,2013-02-15 06:28:00,
2013-02-15 01:33:00,34.0,29.4,29.91,WSW,258,12.0,12.0,83,0.01,,---,0.01,VWS V13.01,2013-02-15 06:33:00,
2013-02-15 01:39:00,34.0,29.4,29.91,West,267,8.0,13.0,83,0.01,,---,0.01,VWS V13.01,2013-02-15 06:39:00,
2013-02-15 01:44:00,34.1,29.2,29.91,WSW,242,9.0,14.0,82,0.01,,---,0.01,VWS V13.01,2013-02-15 06:44:00,
2013-02-15 01:49:00,34.2,29.0,29.91,West,269,7.0,14.0,81,0.01,,---,0.01,VWS V13.01,2013-02-15 06:49:00,
2013-02-15 01:54:00,34.2,29.3,29.90,West,274,8.0,14.0,82,0.01,,---,0.01,VWS V13.01,2013-02-15 06:54:00,
2013-02-15 01:59:00,34.0,29.4,29.91,WSW,257,10.0,14.0,83,0.01,,---,0.01,VWS V13.01,2013-02-15 06:59:00,
2013-02-15 02:04:00,33.9,29.0,29.90,SW,232,7.0,15.0,82,0.00,,---,0.01,VWS V13.01,2013-02-15 07:04:00,
2013-02-15 02:09:00,34.0,28.8,29.90,WSW,254,13.0,21.0,81,0.00,,---,0.01,VWS V13.01,2013-02-15 07:09:00,
2013-02-15 02:14:00,34.1,28.9,29.90,West,273,9.0,21.0,81,0.00,,---,0.01,VWS V13.01,2013-02-15 07:14:00,
2013-02-15 02:19:00,34.0,28.8,29.90,West,269,10.0,21.0,81,0.00,,---,0.01,VWS V13.01,2013-02-15 07:19:00,
2013-02-15 02:24:00,33.9,29.0,29.91,West,269,8.0,21.0,82,0.00,,---,0.01,VWS V13.01,2013-02-15 07:24:00,
2013-02-15 02:29:00,33.8,28.9,29.91,West,271,14.0,21.0,82,0.00,,---,0.01,VWS V13.01,2013-02-15 07:29:00,
2013-02-15 02:34:00,33.8,28.6,29.91,West,269,10.0,18.0,81,0.00,,---,0.01,VWS V13.01,2013-02-15 07:34:00,
2013-02-15 02:39:00,33.8,28.9,29.91,West,261,9.0,18.0,82,0.00,,---,0.01,VWS V13.01,2013-02-15 07:39:00,
2013-02-15 02:44:00,33.8,28.9,29.91,West,273,5.0,18.0,82,0.00,,---,0.01,VWS V13.01,2013-02-15 07:44:00,
2013-02-15 02:49:00,33.6,29.0,29.92,West,273,9.0,18.0,83,0.00,,---,0.01,VWS V13.01,2013-02-15 07:49:00,
2013-02-15 02:54:00,33.5,29.2,29.92,West,281,7.0,18.0,84,0.00,,---,0.01,VWS V13.01,2013-02-15 07:54:00,
2013-02-15 02:59:00,33.5,28.3,29.92,West,278,12.0,18.0,81,0.00,,---,0.01,VWS V13.01,2013-02-15 07:59:00,
2013-02-15 03:05:00,33.5,28.3,29.92,WNW,303,12.0,16.0,81,0.00,,---,0.01,VWS V13.01,2013-02-15 08:05:00,
2013-02-15 03:10:00,33.4,28.2,29.92,WNW,284,7.0,16.0,81,0.00,,---,0.01,VWS V13.01,2013-02-15 08:10:00,
2013-02-15 03:15:00,33.3,27.8,29.92,West,271,5.0,16.0,80,0.00,,---,0.01,VWS V13.01,2013-02-15 08:15:00,
2013-02-15 03:20:00,33.3,27.8,29.91,West,280,8.0,16.0,80,0.00,,---,0.01,VWS V13.01,2013-02-15 08:20:00,
2013-02-15 03:25:00,33.2,27.4,29.91,West,279,8.0,16.0,79,0.00,,---,0.01,VWS V13.01,2013-02-15 08:25:00,
2013-02-15 03:30:00,33.2,27.7,29.92,WNW,294,9.0,16.0,80,0.00,,---,0.01,VWS V13.01,2013-02-15 08:30:00,
2013-02-15 03:35:00,33.1,27.6,29.92,West,279,10.0,12.0,80,0.00,,---,0.01,VWS V13.01,2013-02-15 08:35:00,
2013-02-15 03:40:00,33.1,27.6,29.92,West,281,11.0,13.0,80,0.00,,---,0.01,VWS V13.01,2013-02-15 08:40:00,
2013-02-15 03:45:00,33.0,27.2,29.92,WNW,285,5.0,13.0,79,0.00,,---,0.01,VWS V13.01,2013-02-15 08:45:00,
2013-02-15 03:50:00,32.9,26.8,29.92,WNW,291,10.0,18.0,78,0.00,,---,0.01,VWS V13.01,2013-02-15 08:50:00,
2013-02-15 03:55:00,32.8,26.4,29.92,WNW,296,8.0,18.0,77,0.00,,---,0.01,VWS V13.01,2013-02-15 08:55:00,
2013-02-15 04:00:00,32.6,26.2,29.92,West,270,19.0,19.0,77,0.00,,---,0.01,VWS V13.01,2013-02-15 09:00:00,
2013-02-15 04:05:00,32.7,25.3,29.92,WNW,284,12.0,19.0,74,0.00,,---,0.01,VWS V13.01,2013-02-15 09:05:00,
2013-02-15 04:10:00,32.4,25.4,29.93,WNW,291,6.0,19.0,75,0.00,,---,0.01,VWS V13.01,2013-02-15 09:10:00,
2013-02-15 04:15:00,32.3,25.3,29.93,WNW,295,10.0,19.0,75,0.00,,---,0.01,VWS V13.01,2013-02-15 09:15:00,
2013-02-15 04:20:00,32.4,25.7,29.93,WNW,288,8.0,19.0,76,0.00,,---,0.01,VWS V13.01,2013-02-15 09:20:00,
2013-02-15 04:26:00,32.3,25.3,29.93,WNW,287,8.0,19.0,75,0.00,,---,0.01,VWS V13.01,2013-02-15 09:26:00,
2013-02-15 04:31:00,32.3,25.0,29.93,West,275,8.0,12.0,74,0.00,,---,0.01,VWS V13.01,2013-02-15 09:31:00,
2013-02-15 04:36:00,32.5,24.8,29.93,West,275,16.0,19.0,73,0.00,,---,0.01,VWS V13.01,2013-02-15 09:36:00,
2013-02-15 04:41:00,32.6,24.6,29.93,West,276,13.0,22.0,72,0.00,,---,0.01,VWS V13.01,2013-02-15 09:41:00,
2013-02-15 04:46:00,32.6,24.2,29.94,WNW,289,9.0,22.0,71,0.00,,---,0.01,VWS V13.01,2013-02-15 09:46:00,
2013-02-15 04:51:00,32.5,24.5,29.94,West,267,14.0,22.0,72,0.00,,---,0.01,VWS V13.01,2013-02-15 09:51:00,
2013-02-15 04:56:00,32.6,24.2,29.94,West,263,13.0,22.0,71,0.00,,---,0.01,VWS V13.01,2013-02-15 09:56:00,
2013-02-15 05:01:00,32.5,24.5,29.94,West,279,10.0,11.0,72,0.00,,---,0.01,VWS V13.01,2013-02-15 10:01:00,
2013-02-15 05:06:00,32.4,24.7,29.94,West,277,8.0,15.0,73,0.00,,---,0.01,VWS V13.01,2013-02-15 10:06:00,
2013-02-15 05:11:00,32.5,24.8,29.94,NW,305,9.0,16.0,73,0.00,,---,0.01,VWS V13.01,2013-02-15 10:11:00,
2013-02-15 05:16:00,32.4,24.7,29.94,WNW,290,9.0,16.0,73,0.00,,---,0.01,VWS V13.01,2013-02-15 10:16:00,
2013-02-15 05:21:00,32.3,24.6,29.94,West,269,9.0,16.0,73,0.00,,---,0.01,VWS V13.01,2013-02-15 10:21:00,
2013-02-15 05:26:00,32.3,24.6,29.95,West,281,6.0,16.0,73,0.00,,---,0.01,VWS V13.01,2013-02-15 10:26:00,
2013-02-15 05:31:00,32.3,24.6,29.95,West,277,7.0,8.0,73,0.00,,---,0.01,VWS V13.01,2013-02-15 10:31:00,
2013-02-15 05:36:00,32.3,24.6,29.95,West,273,11.0,14.0,73,0.00,,---,0.01,VWS V13.01,2013-02-15 10:36:00,
2013-02-15 05:41:00,32.2,24.9,29.95,WNW,286,12.0,14.0,74,0.00,,---,0.01,VWS V13.01,2013-02-15 10:41:00,
2013-02-15 05:46:00,32.3,24.3,29.95,West,265,6.0,16.0,72,0.00,,---,0.01,VWS V13.01,2013-02-15 10:46:00,
2013-02-15 05:52:00,32.3,24.6,29.95,WNW,291,12.0,16.0,73,0.00,,---,0.01,VWS V13.01,2013-02-15 10:52:00,
2013-02-15 05:57:00,32.3,25.0,29.95,West,279,9.0,16.0,74,0.00,,---,0.01,VWS V13.01,2013-02-15 10:57:00,
2013-02-15 06:02:00,32.2,25.2,29.95,WNW,287,6.0,9.0,75,0.00,,---,0.01,VWS V13.01,2013-02-15 11:02:00,
2013-02-15 06:07:00,32.1,25.1,29.96,West,281,10.0,11.0,75,0.00,,---,0.01,VWS V13.01,2013-02-15 11:07:00,
2013-02-15 06:12:00,32.1,24.8,29.96,WNW,283,18.0,18.0,74,0.00,,---,0.01,VWS V13.01,2013-02-15 11:12:00,
2013-02-15 06:17:00,32.2,24.9,29.96,West,268,8.0,18.0,74,0.00,,---,0.01,VWS V13.01,2013-02-15 11:17:00,
2013-02-15 06:22:00,32.2,24.5,29.96,WSW,258,6.0,18.0,73,0.00,,---,0.01,VWS V13.01,2013-02-15 11:22:00,
2013-02-15 06:27:00,32.2,24.9,29.96,WSW,249,12.0,19.0,74,0.00,,---,0.01,VWS V13.01,2013-02-15 11:27:00,
2013-02-15 06:32:00,32.2,24.5,29.96,West,269,10.0,14.0,73,0.00,,---,0.01,VWS V13.01,2013-02-15 11:32:00,
2013-02-15 06:37:00,32.3,24.3,29.96,West,268,11.0,24.0,72,0.00,,---,0.01,VWS V13.01,2013-02-15 11:37:00,
2013-02-15 06:42:00,32.1,24.8,29.96,West,275,7.0,24.0,74,0.00,,---,0.01,VWS V13.01,2013-02-15 11:42:00,
2013-02-15 06:47:00,32.0,24.3,29.96,West,273,6.0,24.0,73,0.00,,---,0.01,VWS V13.01,2013-02-15 11:47:00,
2013-02-15 06:52:00,32.0,24.7,29.97,West,280,9.0,24.0,74,0.00,,---,0.01,VWS V13.01,2013-02-15 11:52:00,
2013-02-15 06:57:00,31.9,24.2,29.97,West,263,12.0,24.0,73,0.00,,---,0.01,VWS V13.01,2013-02-15 11:57:00,
2013-02-15 07:02:00,32.0,24.7,29.97,West,273,6.0,12.0,74,0.00,,---,0.01,VWS V13.01,2013-02-15 12:02:00,
2013-02-15 07:08:00,31.9,24.9,29.98,West,279,5.0,12.0,75,0.00,,---,0.01,VWS V13.01,2013-02-15 12:08:00,
2013-02-15 07:13:00,31.7,24.7,29.97,West,275,6.0,12.0,75,0.00,,---,0.01,VWS V13.01,2013-02-15 12:13:00,
2013-02-15 07:18:00,31.6,24.9,29.98,West,273,6.0,12.0,76,0.00,,---,0.01,VWS V13.01,2013-02-15 12:18:00,
2013-02-15 07:23:00,31.5,25.1,29.98,West,261,10.0,12.0,77,0.00,,---,0.01,VWS V13.01,2013-02-15 12:23:00,
2013-02-15 07:28:00,31.6,24.6,29.98,West,271,9.0,12.0,75,0.00,,---,0.01,VWS V13.01,2013-02-15 12:28:00,
2013-02-15 07:33:00,31.6,24.9,29.99,WNW,284,8.0,13.0,76,0.00,,---,0.01,VWS V13.01,2013-02-15 12:33:00,
2013-02-15 07:38:00,31.6,24.9,29.99,West,275,10.0,13.0,76,0.00,,---,0.01,VWS V13.01,2013-02-15 12:38:00,
2013-02-15 07:43:00,31.6,24.6,29.99,WNW,290,11.0,14.0,75,0.00,,---,0.01,VWS V13.01,2013-02-15 12:43:00,
2013-02-15 07:48:00,31.6,24.6,29.99,WNW,291,9.0,14.0,75,0.00,,---,0.01,VWS V13.01,2013-02-15 12:48:00,
2013-02-15 07:53:00,31.5,24.5,30.00,WSW,252,9.0,14.0,75,0.00,,---,0.01,VWS V13.01,2013-02-15 12:53:00,
2013-02-15 07:58:00,31.6,24.9,30.00,West,272,7.0,14.0,76,0.00,,---,0.01,VWS V13.01,2013-02-15 12:58:00,
2013-02-15 08:03:00,31.6,24.3,30.00,WSW,252,10.0,15.0,74,0.00,,---,0.01,VWS V13.01,2013-02-15 13:03:00,
2013-02-15 08:08:00,31.6,24.6,30.00,WNW,286,11.0,15.0,75,0.00,,---,0.01,VWS V13.01,2013-02-15 13:08:00,
2013-02-15 08:13:00,31.5,24.8,30.00,WNW,287,6.0,15.0,76,0.00,,---,0.01,VWS V13.01,2013-02-15 13:13:00,
2013-02-15 08:18:00,31.4,24.7,30.01,WSW,244,5.0,15.0,76,0.00,,---,0.01,VWS V13.01,2013-02-15 13:18:00,
2013-02-15 08:23:00,31.5,24.5,30.01,West,268,18.0,20.0,75,0.00,,---,0.01,VWS V13.01,2013-02-15 13:23:00,
2013-02-15 08:28:00,31.5,24.5,30.01,WNW,286,11.0,21.0,75,0.00,,---,0.01,VWS V13.01,2013-02-15 13:28:00,
2013-02-15 08:34:00,31.4,25.0,30.01,West,269,8.0,16.0,77,0.00,,---,0.01,VWS V13.01,2013-02-15 13:34:00,
2013-02-15 08:39:00,31.5,24.8,30.01,West,279,10.0,16.0,76,0.00,,---,0.01,VWS V13.01,2013-02-15 13:39:00,
2013-02-15 08:44:00,31.5,24.8,30.01,WSW,254,8.0,19.0,76,0.00,,---,0.01,VWS V13.01,2013-02-15 13:44:00,
2013-02-15 08:49:00,31.5,24.5,30.02,West,272,8.0,19.0,75,0.00,,---,0.01,VWS V13.01,2013-02-15 13:49:00,
2013-02-15 08:54:00,31.6,24.3,30.02,West,267,10.0,19.0,74,0.00,,---,0.01,VWS V13.01,2013-02-15 13:54:00,
2013-02-15 08:59:00,31.6,24.3,30.02,West,277,9.0,20.0,74,0.00,,---,0.01,VWS V13.01,2013-02-15 13:59:00,
2013-02-15 09:04:00,31.5,24.5,30.02,West,272,8.0,16.0,75,0.00,,---,0.01,VWS V13.01,2013-02-15 14:04:00,
2013-02-15 09:09:00,31.5,24.5,30.02,WNW,293,19.0,19.0,75,0.00,,---,0.01,VWS V13.01,2013-02-15 14:09:00,
2013-02-15 09:14:00,31.5,24.5,30.02,West,272,11.0,19.0,75,0.00,,---,0.01,VWS V13.01,2013-02-15 14:14:00,
2013-02-15 09:19:00,31.5,24.2,30.02,West,280,10.0,19.0,74,0.00,,---,0.01,VWS V13.01,2013-02-15 14:19:00,
2013-02-15 09:24:00,31.5,24.5,30.03,West,261,11.0,19.0,75,0.00,,---,0.01,VWS V13.01,2013-02-15 14:24:00,
2013-02-15 09:29:00,31.6,24.6,30.02,West,271,10.0,19.0,75,0.00,,---,0.01,VWS V13.01,2013-02-15 14:29:00,
2013-02-15 09:34:00,31.5,24.5,30.02,WSW,258,10.0,14.0,75,0.00,,---,0.01,VWS V13.01,2013-02-15 14:34:00,
2013-02-15 09:39:00,31.5,24.5,30.02,WNW,288,8.0,19.0,75,0.00,,---,0.01,VWS V13.01,2013-02-15 14:39:00,
2013-02-15 09:44:00,31.5,24.5,30.03,West,272,8.0,19.0,75,0.00,,---,0.01,VWS V13.01,2013-02-15 14:44:00,
2013-02-15 09:49:00,31.6,24.3,30.03,West,263,9.0,19.0,74,0.00,,---,0.01,VWS V13.01,2013-02-15 14:49:00,
2013-02-15 09:55:00,31.6,24.6,30.04,West,263,9.0,19.0,75,0.00,,---,0.01,VWS V13.01,2013-02-15 14:55:00,
2013-02-15 10:00:00,31.5,24.5,30.03,WNW,289,14.0,20.0,75,0.00,,---,0.01,VWS V13.01,2013-02-15 15:00:00,
2013-02-15 10:05:00,31.5,24.5,30.03,WNW,291,12.0,21.0,75,0.00,,---,0.01,VWS V13.01,2013-02-15 15:05:00,
2013-02-15 10:10:00,31.5,25.1,30.04,West,279,9.0,21.0,77,0.00,,---,0.01,VWS V13.01,2013-02-15 15:10:00,
2013-02-15 10:15:00,31.7,24.0,30.03,West,281,12.0,21.0,73,0.00,,---,0.01,VWS V13.01,2013-02-15 15:15:00,
2013-02-15 10:20:00,31.9,24.2,30.03,West,269,6.0,21.0,73,0.00,,---,0.01,VWS V13.01,2013-02-15 15:20:00,
2013-02-15 10:25:00,32.0,24.0,30.03,West,260,12.0,21.0,72,0.00,,---,0.01,VWS V13.01,2013-02-15 15:25:00,
2013-02-15 10:30:00,32.2,24.2,30.03,West,272,8.0,21.0,72,0.00,,---,0.01,VWS V13.01,2013-02-15 15:30:00,
2013-02-15 10:35:00,32.2,24.5,30.03,West,281,6.0,14.0,73,0.00,,---,0.01,VWS V13.01,2013-02-15 15:35:00,
2013-02-15 10:40:00,32.4,24.4,30.02,WNW,290,6.0,14.0,72,0.00,,---,0.01,VWS V13.01,2013-02-15 15:40:00,
2013-02-15 10:46:00,32.5,24.8,30.02,WNW,291,8.0,15.0,73,0.00,,---,0.01,VWS V13.01,2013-02-15 15:46:00,
2013-02-15 10:51:00,32.6,25.2,30.02,WNW,285,9.0,15.0,74,0.00,,---,0.01,VWS V13.01,2013-02-15 15:51:00,
2013-02-15 10:56:00,32.5,25.1,30.02,WNW,283,9.0,20.0,74,0.00,,---,0.01,VWS V13.01,2013-02-15 15:56:00,
2013-02-15 11:01:00,32.6,25.9,30.02,WNW,295,11.0,12.0,76,0.00,,---,0.01,VWS V13.01,2013-02-15 16:01:00,
2013-02-15 11:06:00,32.6,25.2,30.02,WNW,292,11.0,14.0,74,0.00,,---,0.01,VWS V13.01,2013-02-15 16:06:00,
2013-02-15 11:11:00,32.6,25.2,30.02,WNW,296,8.0,14.0,74,0.00,,---,0.01,VWS V13.01,2013-02-15 16:11:00,
2013-02-15 11:16:00,32.6,25.2,30.02,WNW,290,12.0,15.0,74,0.00,,---,0.01,VWS V13.01,2013-02-15 16:16:00,
2013-02-15 11:21:00,32.6,25.6,30.02,WNW,283,7.0,15.0,75,0.00,,---,0.01,VWS V13.01,2013-02-15 16:21:00,
2013-02-15 11:26:00,32.7,25.7,30.02,WNW,300,10.0,15.0,75,0.00,,---,0.01,VWS V13.01,2013-02-15 16:26:00,
2013-02-15 11:31:00,32.7,25.7,30.02,WNW,300,9.0,13.0,75,0.00,,---,0.01,VWS V13.01,2013-02-15 16:31:00,
2013-02-15 11:36:00,32.5,25.5,30.02,WNW,284,7.0,14.0,75,0.00,,---,0.01,VWS V13.01,2013-02-15 16:36:00,
2013-02-15 11:41:00,32.5,25.8,30.02,WNW,293,8.0,14.0,76,0.00,,---,0.01,VWS V13.01,2013-02-15 16:41:00,
2013-02-15 11:46:00,32.6,25.9,30.02,WNW,292,9.0,14.0,76,0.00,,---,0.01,VWS V13.01,2013-02-15 16:46:00,
2013-02-15 11:51:00,32.5,25.5,30.02,West,263,16.0,18.0,75,0.00,,---,0.01,VWS V13.01,2013-02-15 16:51:00,
2013-02-15 11:56:00,32.5,25.5,30.02,WNW,282,12.0,18.0,75,0.00,,---,0.01,VWS V13.01,2013-02-15 16:56:00,
2013-02-15 12:01:00,32.6,25.2,30.02,WNW,286,13.0,13.0,74,0.00,,---,0.01,VWS V13.01,2013-02-15 17:01:00,
2013-02-15 12:07:00,32.7,25.7,30.02,West,280,9.0,15.0,75,0.00,,---,0.01,VWS V13.01,2013-02-15 17:07:00,
2013-02-15 12:12:00,32.8,25.8,30.02,WNW,292,9.0,15.0,75,0.00,,---,0.01,VWS V13.01,2013-02-15 17:12:00,
2013-02-15 12:17:00,32.9,25.9,30.02,West,263,10.0,15.0,75,0.00,,---,0.01,VWS V13.01,2013-02-15 17:17:00,
2013-02-15 12:22:00,33.1,25.7,30.02,West,281,8.0,15.0,74,0.00,,---,0.01,VWS V13.01,2013-02-15 17:22:00,
2013-02-15 12:27:00,33.4,26.0,30.01,WNW,296,8.0,15.0,74,0.00,,---,0.01,VWS V13.01,2013-02-15 17:27:00,
2013-02-15 12:32:00,33.5,26.1,30.01,WNW,295,6.0,11.0,74,0.00,,---,0.01,VWS V13.01,2013-02-15 17:32:00,
2013-02-15 12:37:00,33.4,26.0,30.01,West,279,10.0,13.0,74,0.00,,---,0.01,VWS V13.01,2013-02-15 17:37:00,
2013-02-15 12:42:00,33.2,25.5,30.01,WNW,284,14.0,20.0,73,0.00,,---,0.01,VWS V13.01,2013-02-15 17:42:00,
2013-02-15 12:47:00,33.2,24.8,30.01,WNW,292,10.0,22.0,71,0.00,,---,0.01,VWS V13.01,2013-02-15 17:47:00,
2013-02-15 12:52:00,33.1,25.1,30.01,West,272,10.0,22.0,72,0.00,,---,0.01,VWS V13.01,2013-02-15 17:52:00,
2013-02-15 12:57:00,33.2,25.2,30.01,West,269,12.0,22.0,72,0.00,,---,0.01,VWS V13.01,2013-02-15 17:57:00,
2013-02-15 13:02:00,33.2,25.5,30.01,WSW,257,8.0,11.0,73,0.00,,---,0.01,VWS V13.01,2013-02-15 18:02:00,
2013-02-15 13:07:00,33.3,25.6,30.01,WNW,288,8.0,12.0,73,0.00,,---,0.01,VWS V13.01,2013-02-15 18:07:00,
2013-02-15 13:12:00,33.3,25.6,30.01,WNW,303,11.0,12.0,73,0.00,,---,0.01,VWS V13.01,2013-02-15 18:12:00,
2013-02-15 13:17:00,33.5,25.5,30.00,WNW,284,13.0,14.0,72,0.00,,---,0.01,VWS V13.01,2013-02-15 18:17:00,
2013-02-15 13:22:00,33.4,25.0,30.01,WSW,251,6.0,15.0,71,0.00,,---,0.01,VWS V13.01,2013-02-15 18:22:00,
2013-02-15 13:28:00,33.3,24.9,30.00,WNW,284,11.0,15.0,71,0.00,,---,0.01,VWS V13.01,2013-02-15 18:28:00,
2013-02-15 13:33:00,33.0,25.0,30.00,West,276,9.0,13.0,72,0.00,,---,0.01,VWS V13.01,2013-02-15 18:33:00,
2013-02-15 13:38:00,33.0,25.0,29.99,WNW,300,12.0,16.0,72,0.00,,---,0.01,VWS V13.01,2013-02-15 18:38:00,
2013-02-15 13:43:00,33.0,25.0,29.99,West,275,13.0,16.0,72,0.00,,---,0.01,VWS V13.01,2013-02-15 18:43:00,
2013-02-15 13:48:00,33.1,25.1,30.00,West,267,14.0,16.0,72,0.00,,---,0.01,VWS V13.01,2013-02-15 18:48:00,
2013-02-15 13:53:00,33.1,25.1,30.00,NW,311,10.0,16.0,72,0.00,,---,0.01,VWS V13.01,2013-02-15 18:53:00,
2013-02-15 13:58:00,33.0,24.3,30.00,WNW,294,14.0,19.0,70,0.00,,---,0.01,VWS V13.01,2013-02-15 18:58:00,
2013-02-15 14:04:00,32.9,25.2,30.00,NW,311,9.0,12.0,73,0.00,,---,0.01,VWS V13.01,2013-02-15 19:04:00,
2013-02-15 14:09:00,32.6,25.9,30.00,NW,319,8.0,15.0,76,0.00,,---,0.01,VWS V13.01,2013-02-15 19:09:00,
2013-02-15 14:14:00,32.4,26.0,30.00,NNW,327,11.0,15.0,77,0.00,,---,0.01,VWS V13.01,2013-02-15 19:14:00,
2013-02-15 14:19:00,32.4,26.3,30.00,NW,322,14.0,15.0,78,0.00,,---,0.01,VWS V13.01,2013-02-15 19:19:00,
2013-02-15 14:24:00,32.3,26.2,30.00,NW,306,10.0,15.0,78,0.00,,---,0.01,VWS V13.01,2013-02-15 19:24:00,
2013-02-15 14:29:00,32.0,26.2,30.00,NW,316,10.0,16.0,79,0.00,,---,0.01,VWS V13.01,2013-02-15 19:29:00,
2013-02-15 14:34:00,31.9,26.4,30.00,NNW,327,9.0,14.0,80,0.00,,---,0.01,VWS V13.01,2013-02-15 19:34:00,
2013-02-15 14:39:00,31.8,26.9,30.00,NW,304,5.0,14.0,82,0.00,,---,0.01,VWS V13.01,2013-02-15 19:39:00,
2013-02-15 14:44:00,31.8,26.9,30.00,WNW,298,8.0,14.0,82,0.00,,---,0.01,VWS V13.01,2013-02-15 19:44:00,
2013-02-15 14:49:00,31.7,26.8,30.00,WNW,282,8.0,14.0,82,0.00,,---,0.01,VWS V13.01,2013-02-15 19:49:00,
2013-02-15 14:54:00,31.9,27.0,30.01,NW,304,5.0,14.0,82,0.00,,---,0.01,VWS V13.01,2013-02-15 19:54:00,
2013-02-15 14:59:00,31.9,27.0,30.01,NW,307,6.0,14.0,82,0.00,,---,0.01,VWS V13.01,2013-02-15 19:59:00,
2013-02-15 15:04:00,31.8,26.9,30.01,WNW,293,11.0,16.0,82,0.00,,---,0.01,VWS V13.01,2013-02-15 20:04:00,
2013-02-15 15:10:00,31.6,26.8,30.02,NW,313,10.0,16.0,82,0.00,,---,0.01,VWS V13.01,2013-02-15 20:10:00,
2013-02-15 15:15:00,31.2,26.6,30.02,NNW,345,9.0,16.0,83,0.00,,---,0.01,VWS V13.01,2013-02-15 20:15:00,
2013-02-15 15:20:00,30.3,26.3,30.02,NW,324,8.0,16.0,85,0.00,,---,0.01,VWS V13.01,2013-02-15 20:20:00,
2013-02-15 15:25:00,29.5,26.1,30.03,NW,307,6.0,16.0,87,0.00,,---,0.01,VWS V13.01,2013-02-15 20:25:00,
2013-02-15 15:30:00,29.1,25.7,30.02,WNW,296,8.0,16.0,87,0.00,,---,0.01,VWS V13.01,2013-02-15 20:30:00,
2013-02-15 15:35:00,29.0,25.9,30.02,NW,309,5.0,9.0,88,0.00,,---,0.01,VWS V13.01,2013-02-15 20:35:00,
2013-02-15 15:40:00,29.1,26.0,30.03,NW,308,6.0,11.0,88,0.00,,---,0.01,VWS V13.01,2013-02-15 20:40:00,
2013-02-15 15:45:00,29.2,25.8,30.03,NW,323,7.0,11.0,87,0.00,,---,0.01,VWS V13.01,2013-02-15 20:45:00,
2013-02-15 15:50:00,29.2,25.8,30.02,NNW,340,2.0,11.0,87,0.00,,---,0.01,VWS V13.01,2013-02-15 20:50:00,
2013-02-15 15:55:00,29.2,25.5,30.02,NNW,336,0.0,11.0,86,0.00,,---,0.01,VWS V13.01,2013-02-15 20:55:00,
2013-02-15 16:01:00,29.2,25.5,30.02,NNW,334,4.0,4.0,86,0.00,,---,0.01,VWS V13.01,2013-02-15 21:01:00,
2013-02-15 16:06:00,29.2,25.3,30.02,NW,320,6.0,7.0,85,0.00,,---,0.01,VWS V13.01,2013-02-15 21:06:00,
2013-02-15 16:11:00,29.2,25.3,30.02,NW,324,7.0,8.0,85,0.00,,---,0.01,VWS V13.01,2013-02-15 21:11:00,
2013-02-15 16:16:00,29.2,25.3,30.02,NW,325,0.0,9.0,85,0.00,,---,0.01,VWS V13.01,2013-02-15 21:16:00,
2013-02-15 16:21:00,29.2,25.3,30.04,NNW,336,7.0,10.0,85,0.00,,---,0.01,VWS V13.01,2013-02-15 21:21:00,
2013-02-15 16:26:00,29.2,25.0,30.04,NNW,329,6.0,11.0,84,0.00,,---,0.01,VWS V13.01,2013-02-15 21:26:00,
2013-02-15 16:31:00,29.2,25.0,30.04,WNW,298,4.0,8.0,84,0.00,,---,0.01,VWS V13.01,2013-02-15 21:31:00,
2013-02-15 16:36:00,29.2,24.7,30.05,NW,314,8.0,14.0,83,0.00,,---,0.01,VWS V13.01,2013-02-15 21:36:00,
2013-02-15 16:41:00,29.2,24.4,30.05,NW,309,6.0,14.0,82,0.00,,---,0.01,VWS V13.01,2013-02-15 21:41:00,
2013-02-15 16:46:00,29.2,24.4,30.04,NW,325,5.0,14.0,82,0.00,,---,0.01,VWS V13.01,2013-02-15 21:46:00,
2013-02-15 16:51:00,29.3,24.5,30.04,NW,323,1.0,14.0,82,0.00,,---,0.01,VWS V13.01,2013-02-15 21:51:00,
2013-02-15 16:56:00,29.2,24.1,30.04,NW,321,8.0,14.0,81,0.00,,---,0.01,VWS V13.01,2013-02-15 21:56:00,
2013-02-15 17:01:00,29.2,24.1,30.05,WNW,299,5.0,5.0,81,0.00,,---,0.01,VWS V13.01,2013-02-15 22:01:00,
2013-02-15 17:07:00,29.3,24.2,30.05,WNW,299,2.0,6.0,81,0.00,,---,0.01,VWS V13.01,2013-02-15 22:07:00,
2013-02-15 17:12:00,29.5,24.1,30.05,NNW,328,2.0,8.0,80,0.00,,---,0.01,VWS V13.01,2013-02-15 22:12:00,
2013-02-15 17:17:00,29.7,24.3,30.05,NW,325,0.0,8.0,80,0.00,,---,0.01,VWS V13.01,2013-02-15 22:17:00,
2013-02-15 17:22:00,29.7,24.3,30.05,NW,325,0.0,8.0,80,0.00,,---,0.01,VWS V13.01,2013-02-15 22:22:00,
2013-02-15 17:27:00,29.5,24.1,30.06,NW,325,6.0,8.0,80,0.00,,---,0.01,VWS V13.01,2013-02-15 22:27:00,
2013-02-15 17:32:00,29.3,23.6,30.06,NNW,333,7.0,8.0,79,0.00,,---,0.01,VWS V13.01,2013-02-15 22:32:00,
2013-02-15 17:37:00,29.2,22.9,30.05,North,355,4.0,9.0,77,0.00,,---,0.01,VWS V13.01,2013-02-15 22:37:00,
2013-02-15 17:42:00,29.0,22.1,30.06,North,5,6.0,9.0,75,0.00,,---,0.01,VWS V13.01,2013-02-15 22:42:00,
2013-02-15 17:47:00,28.8,21.9,30.06,NW,319,4.0,9.0,75,0.00,,---,0.01,VWS V13.01,2013-02-15 22:47:00,
2013-02-15 17:52:00,28.6,21.7,30.06,NNW,339,0.0,10.0,75,0.00,,---,0.01,VWS V13.01,2013-02-15 22:52:00,
2013-02-15 17:57:00,28.5,21.6,30.06,NNW,333,4.0,10.0,75,0.00,,---,0.01,VWS V13.01,2013-02-15 22:57:00,
2013-02-15 18:02:00,28.2,21.3,30.07,NNW,330,5.0,5.0,75,0.00,,---,0.01,VWS V13.01,2013-02-15 23:02:00,
2013-02-15 18:07:00,28.0,20.8,30.07,NNW,345,5.0,7.0,74,0.00,,---,0.01,VWS V13.01,2013-02-15 23:07:00,
2013-02-15 18:13:00,27.7,20.5,30.08,NNW,341,7.0,13.0,74,0.00,,---,0.01,VWS V13.01,2013-02-15 23:13:00,
2013-02-15 18:18:00,27.5,20.3,30.07,NW,306,8.0,13.0,74,0.00,,---,0.01,VWS V13.01,2013-02-15 23:18:00,
2013-02-15 18:23:00,27.2,20.3,30.08,WNW,294,4.0,13.0,75,0.00,,---,0.01,VWS V13.01,2013-02-15 23:23:00,
2013-02-15 18:28:00,27.0,20.1,30.08,WNW,296,2.0,13.0,75,0.00,,---,0.01,VWS V13.01,2013-02-15 23:28:00,
2013-02-15 18:33:00,26.9,20.0,30.08,WNW,298,3.0,5.0,75,0.00,,---,0.01,VWS V13.01,2013-02-15 23:33:00,
2013-02-15 18:38:00,26.7,20.2,30.09,WNW,298,2.0,7.0,76,0.00,,---,0.01,VWS V13.01,2013-02-15 23:38:00,
2013-02-15 18:43:00,26.6,20.4,30.09,WNW,298,0.0,7.0,77,0.00,,---,0.01,VWS V13.01,2013-02-15 23:43:00,
2013-02-15 18:48:00,26.5,20.3,30.09,NW,315,5.0,8.0,77,0.00,,---,0.01,VWS V13.01,2013-02-15 23:48:00,
2013-02-15 18:53:00,26.5,20.3,30.09,NW,317,7.0,8.0,77,0.00,,---,0.01,VWS V13.01,2013-02-15 23:53:00,
2013-02-15 18:58:00,26.4,20.5,30.10,NW,315,5.0,8.0,78,0.00,,---,0.01,VWS V13.01,2013-02-15 23:58:00,
2013-02-15 19:03:00,26.3,20.4,30.09,NW,317,2.0,5.0,78,0.00,,---,0.01,VWS V13.01,2013-02-16 00:03:00,
2013-02-15 19:08:00,26.2,20.3,30.09,NW,317,0.0,5.0,78,0.00,,---,0.01,VWS V13.01,2013-02-16 00:08:00,
2013-02-15 19:13:00,26.2,20.3,30.09,NW,315,4.0,7.0,78,0.00,,---,0.01,VWS V13.01,2013-02-16 00:13:00,
2013-02-15 19:19:00,26.1,20.2,30.09,NW,316,3.0,7.0,78,0.00,,---,0.01,VWS V13.01,2013-02-16 00:19:00,
2013-02-15 19:24:00,26.1,20.5,30.10,NW,314,0.0,7.0,79,0.00,,---,0.01,VWS V13.01,2013-02-16 00:24:00,
2013-02-15 19:29:00,26.1,20.8,30.10,NW,315,5.0,7.0,80,0.00,,---,0.01,VWS V13.01,2013-02-16 00:29:00,
2013-02-15 19:34:00,26.0,20.7,30.09,NW,318,5.0,9.0,80,0.00,,---,0.01,VWS V13.01,2013-02-16 00:34:00,
2013-02-15 19:39:00,26.0,21.0,30.10,NW,309,7.0,9.0,81,0.00,,---,0.01,VWS V13.01,2013-02-16 00:39:00,
2013-02-15 19:44:00,25.8,20.8,30.10,WNW,299,6.0,10.0,81,0.00,,---,0.01,VWS V13.01,2013-02-16 00:44:00,
2013-02-15 19:49:00,25.7,20.7,30.09,WNW,302,4.0,10.0,81,0.00,,---,0.01,VWS V13.01,2013-02-16 00:49:00,
2013-02-15 19:54:00,25.6,20.9,30.10,NW,314,0.0,10.0,82,0.00,,---,0.01,VWS V13.01,2013-02-16 00:54:00,
2013-02-15 19:59:00,25.5,20.8,30.10,NW,314,0.0,10.0,82,0.00,,---,0.01,VWS V13.01,2013-02-16 00:59:00,
2013-02-15 20:04:00,25.4,20.7,30.10,NNW,340,6.0,8.0,82,0.00,,---,0.01,VWS V13.01,2013-02-16 01:04:00,
2013-02-15 20:10:00,25.4,21.0,30.10,NNW,340,0.0,8.0,83,0.00,,---,0.01,VWS V13.01,2013-02-16 01:10:00,
2013-02-15 20:15:00,25.3,20.9,30.10,NW,321,4.0,8.0,83,0.00,,---,0.01,VWS V13.01,2013-02-16 01:15:00,
2013-02-15 20:20:00,25.3,20.6,30.10,North,355,6.0,8.0,82,0.00,,---,0.01,VWS V13.01,2013-02-16 01:20:00,
2013-02-15 20:25:00,25.3,20.6,30.10,NW,326,5.0,9.0,82,0.00,,---,0.01,VWS V13.01,2013-02-16 01:25:00,
2013-02-15 20:30:00,25.3,20.6,30.10,NW,326,5.0,9.0,82,0.00,,---,0.01,VWS V13.01,2013-02-16 01:30:00,
2013-02-15 20:35:00,25.3,20.3,30.11,NW,306,8.0,11.0,81,0.00,,---,0.01,VWS V13.01,2013-02-16 01:35:00,
2013-02-15 20:40:00,25.4,20.1,30.10,WNW,298,2.0,11.0,80,0.00,,---,0.01,VWS V13.01,2013-02-16 01:40:00,
2013-02-15 20:45:00,25.5,20.2,30.10,WNW,298,0.0,11.0,80,0.00,,---,0.01,VWS V13.01,2013-02-16 01:45:00,
2013-02-15 20:50:00,25.3,20.0,30.11,NNW,344,0.0,11.0,80,0.00,,---,0.01,VWS V13.01,2013-02-16 01:50:00,
2013-02-15 20:55:00,25.1,19.5,30.11,NNW,338,2.0,11.0,79,0.00,,---,0.01,VWS V13.01,2013-02-16 01:55:00,
2013-02-15 21:00:00,25.0,19.7,30.11,NNW,340,2.0,4.0,80,0.00,,---,0.01,VWS V13.01,2013-02-16 02:00:00,
2013-02-15 21:05:00,24.9,19.6,30.11,NNW,331,5.0,7.0,80,0.00,,---,0.01,VWS V13.01,2013-02-16 02:05:00,
2013-02-15 21:10:00,24.8,19.5,30.11,North,11,5.0,9.0,80,0.00,,---,0.01,VWS V13.01,2013-02-16 02:10:00,
2013-02-15 21:16:00,24.8,19.5,30.11,NW,313,6.0,9.0,80,0.00,,---,0.01,VWS V13.01,2013-02-16 02:16:00,
2013-02-15 21:21:00,24.7,19.7,30.11,WNW,291,7.0,9.0,81,0.00,,---,0.01,VWS V13.01,2013-02-16 02:21:00,
2013-02-15 21:26:00,24.7,19.7,30.11,NW,304,3.0,9.0,81,0.00,,---,0.01,VWS V13.01,2013-02-16 02:26:00,
2013-02-15 21:31:00,24.7,19.7,30.11,NW,304,3.0,4.0,81,0.00,,---,0.01,VWS V13.01,2013-02-16 02:31:00,
2013-02-15 21:36:00,24.7,19.7,30.12,NW,304,0.0,4.0,81,0.00,,---,0.01,VWS V13.01,2013-02-16 02:36:00,
2013-02-15 21:41:00,24.5,19.2,30.11,NW,306,2.0,4.0,80,0.00,,---,0.01,VWS V13.01,2013-02-16 02:41:00,
2013-02-15 21:46:00,24.4,19.1,30.11,NW,306,3.0,4.0,80,0.00,,---,0.01,VWS V13.01,2013-02-16 02:46:00,
2013-02-15 21:51:00,24.2,18.6,30.11,North,355,0.0,6.0,79,0.00,,---,0.01,VWS V13.01,2013-02-16 02:51:00,
2013-02-15 21:56:00,24.1,18.5,30.11,North,11,0.0,6.0,79,0.00,,---,0.01,VWS V13.01,2013-02-16 02:56:00,
2013-02-15 22:01:00,24.1,18.5,30.12,North,11,0.0,0.0,79,0.00,,---,0.01,VWS V13.01,2013-02-16 03:01:00,
2013-02-15 22:07:00,24.2,18.3,30.11,North,11,0.0,4.0,78,0.00,,---,0.01,VWS V13.01,2013-02-16 03:07:00,
2013-02-15 22:12:00,24.3,18.4,30.11,North,11,1.0,5.0,78,0.00,,---,0.01,VWS V13.01,2013-02-16 03:12:00,
2013-02-15 22:17:00,24.3,18.7,30.12,North,10,0.0,5.0,79,0.00,,---,0.01,VWS V13.01,2013-02-16 03:17:00,
2013-02-15 22:22:00,24.1,18.5,30.12,North,10,0.0,5.0,79,0.00,,---,0.01,VWS V13.01,2013-02-16 03:22:00,
2013-02-15 22:27:00,24.0,18.5,30.12,NW,325,6.0,8.0,79,0.00,,---,0.01,VWS V13.01,2013-02-16 03:27:00,
2013-02-15 22:32:00,23.9,18.4,30.12,NW,325,2.0,5.0,79,0.00,,---,0.01,VWS V13.01,2013-02-16 03:32:00,
2013-02-15 22:37:00,23.9,18.0,30.12,NW,310,9.0,9.0,78,0.00,,---,0.01,VWS V13.01,2013-02-16 03:37:00,
2013-02-15 22:42:00,23.8,18.0,30.12,NW,315,2.0,9.0,78,0.00,,---,0.01,VWS V13.01,2013-02-16 03:42:00,
2013-02-15 22:47:00,23.7,17.9,30.12,NW,314,0.0,9.0,78,0.00,,---,0.01,VWS V13.01,2013-02-16 03:47:00,
2013-02-15 22:52:00,23.7,17.9,30.12,NW,315,0.0,9.0,78,0.00,,---,0.01,VWS V13.01,2013-02-16 03:52:00,
2013-02-15 22:57:00,23.6,17.8,30.11,NW,315,0.0,9.0,78,0.00,,---,0.01,VWS V13.01,2013-02-16 03:57:00,
2013-02-15 23:02:00,23.4,17.6,30.12,NNE,19,4.0,5.0,78,0.00,,---,0.01,VWS V13.01,2013-02-16 04:02:00,
2013-02-15 23:07:00,23.3,17.5,30.12,NW,311,7.0,7.0,78,0.00,,---,0.01,VWS V13.01,2013-02-16 04:07:00,
2013-02-15 23:12:00,23.2,17.4,30.12,NNW,335,1.0,8.0,78,0.00,,---,0.01,VWS V13.01,2013-02-16 04:12:00,
2013-02-15 23:17:00,23.1,17.3,30.12,NNW,335,5.0,8.0,78,0.00,,---,0.01,VWS V13.01,2013-02-16 04:17:00,
2013-02-15 23:23:00,23.0,17.2,30.12,NNE,26,0.0,8.0,78,0.00,,---,0.01,VWS V13.01,2013-02-16 04:23:00,
2013-02-15 23:28:00,22.9,17.4,30.13,NW,322,8.0,8.0,79,0.00,,---,0.01,VWS V13.01,2013-02-16 04:28:00,
2013-02-15 23:33:00,22.7,17.2,30.13,NNW,327,4.0,8.0,79,0.00,,---,0.01,VWS V13.01,2013-02-16 04:33:00,
2013-02-15 23:38:00,22.5,16.7,30.13,NNE,19,0.0,8.0,78,0.00,,---,0.01,VWS V13.01,2013-02-16 04:38:00,
2013-02-15 23:43:00,22.4,16.6,30.13,NNE,22,0.0,9.0,78,0.00,,---,0.01,VWS V13.01,2013-02-16 04:43:00,
2013-02-15 23:48:00,22.3,16.5,30.13,NNW,332,6.0,9.0,78,0.00,,---,0.01,VWS V13.01,2013-02-16 04:48:00,
2013-02-15 23:53:00,22.1,15.7,30.13,NNW,330,2.0,9.0,76,0.00,,---,0.01,VWS V13.01,2013-02-16 04:53:00,
2013-02-15 23:58:00,22.0,15.6,30.13,NNW,329,0.0,9.0,76,0.00,,---,0.01,VWS V13.01,2013-02-16 04:58:00,